Weather History for St-Nazaire, France

Change the Weather History Date:

Thursday, December 13, 2012

  Actual Average Record
Temperature  
Mean Temperature 39 °F -  
Max Temperature 46 °F 47 °F 57 °F (2003)
Min Temperature 32 °F 38 °F 26 °F (2007)
Degree Days  
Heating Degree Days 26    
Moisture  
Dew Point 38 °F    
Average Humidity 91    
Maximum Humidity 100    
Minimum Humidity 75    
Precipitation  
Precipitation 0.00 in - - ()
Sea Level Pressure  
Sea Level Pressure 29.60 in    
Wind  
Wind Speed 9 mph ()    
Max Wind Speed 13 mph    
Max Gust Speed -    
Visibility 4.6 miles    
Events Fog , Rain , Snow    
Averages and records for this station are not official NWS values.
T = Trace of Precipitation, MM = Missing Value Source: Averaged Metar Reports

Daily Weather History Graph

Daily Weather History Graph

Search for Another Location

Airport:

Trip Planner

Search our weather history database for the weather conditions in past years. The results will help you decide how hot, cold, wet, or windy it might be!

Date:

Astronomy

Dec. 13, 2012 Rise Set
Actual Time 8:47 AM CET 5:18 PM CET
Civil Twilight 8:11 AM CET 5:54 PM CET
Nautical Twilight 7:32 AM CET 6:33 PM CET
Astronomical Twilight 6:55 AM CET 7:10 PM CET
Moon 8:39 AM CET (12/13) 5:45 PM CET (12/13)
Length of Visible Light 9h 42m
Length of Day
8h 30m
New Moon, 0% of the Moon is Illuminated
Dec 13
New Moon
Dec 20
First Quarter
Dec 28
Full
Jan 5
Last Quarter
Jan 11
New

Hourly Weather History & Observations

Time (CET) Temp. Windchill Dew Point Humidity Pressure Visibility Wind Dir Wind Speed Gust Speed Precip Events Conditions
12:00 AM 32.0 °F 24.8 °F 26.6 °F 80% 29.80 in 6.2 mi ESE 8.1 mph - N/A   Unknown
12:30 AM 32.0 °F 24.2 °F 26.6 °F 80% 29.80 in 6.2 mi ESE 9.2 mph - N/A   Unknown
1:00 AM 32.0 °F 23.6 °F 26.6 °F 80% 29.77 in 6.2 mi ESE 10.4 mph - N/A   Unknown
1:30 AM 33.8 °F 25.3 °F 26.6 °F 75% 29.74 in 6.2 mi SE 11.5 mph - N/A   Overcast
2:00 AM 33.8 °F 26.4 °F 26.6 °F 75% 29.74 in 6.2 mi SE 9.2 mph - N/A   Overcast
2:30 AM 33.8 °F 25.8 °F 28.4 °F 81% 29.74 in 6.2 mi ESE 10.4 mph - N/A Rain Light Rain
3:00 AM 33.8 °F 26.4 °F 28.4 °F 81% 29.71 in 5.6 mi ESE 9.2 mph - N/A Rain Light Rain
3:30 AM 33.8 °F 25.8 °F 28.4 °F 81% 29.71 in 3.1 mi ESE 10.4 mph - N/A Rain Rain
4:00 AM 33.8 °F 26.4 °F 30.2 °F 87% 29.68 in 3.7 mi ESE 9.2 mph - N/A Rain Rain
4:30 AM 33.8 °F 25.3 °F 32.0 °F 93% 29.68 in 3.1 mi ESE 11.5 mph - N/A Snow Light Snow
5:00 AM 33.8 °F 25.3 °F 32.0 °F 93% 29.65 in 4.3 mi ESE 11.5 mph - N/A Rain Light Rain
5:30 AM 33.8 °F 25.3 °F 32.0 °F 93% 29.65 in 3.7 mi ESE 11.5 mph - N/A Rain Light Rain
6:00 AM 35.6 °F 28.0 °F 33.8 °F 93% 29.62 in 3.7 mi ESE 10.4 mph - N/A Rain Light Rain
6:30 AM 35.6 °F 27.5 °F 33.8 °F 93% 29.62 in 4.3 mi ESE 11.5 mph - N/A   Mostly Cloudy
7:00 AM 35.6 °F 27.5 °F 33.8 °F 93% 29.62 in - SE 11.5 mph - N/A Rain Light Rain
7:30 AM 37.4 °F 29.3 °F 35.6 °F 93% 29.62 in 5.0 mi SE 12.7 mph - N/A   Unknown
8:00 AM 37.4 °F 29.8 °F 35.6 °F 93% 29.62 in 4.3 mi SE 11.5 mph - N/A   Unknown
8:30 AM 39.2 °F 32.5 °F 37.4 °F 93% 29.62 in 3.1 mi SSE 10.4 mph - N/A   Mostly Cloudy
9:00 AM 39.2 °F 32.5 °F 37.4 °F 93% 29.62 in 5.6 mi SSE 10.4 mph - N/A   Scattered Clouds
9:30 AM 39.2 °F 32.5 °F 37.4 °F 93% 29.62 in 6.2 mi SE 10.4 mph - N/A   Scattered Clouds
10:00 AM 39.2 °F 35.0 °F 37.4 °F 93% 29.62 in - East 5.8 mph - N/A   Mist
10:30 AM 41.0 °F 35.2 °F 39.2 °F 93% 29.62 in 6.2 mi SE 9.2 mph - N/A   Mostly Cloudy
11:00 AM 41.0 °F 37.1 °F 39.2 °F 93% 29.62 in 5.6 mi East 5.8 mph - N/A   Scattered Clouds
11:30 AM 41.0 °F 34.7 °F 39.2 °F 93% 29.62 in 6.2 mi SE 10.4 mph - N/A   Mostly Cloudy
12:00 PM 42.8 °F 37.5 °F 41.0 °F 93% 29.62 in 6.2 mi SE 9.2 mph - N/A Rain Light Rain
12:30 PM 42.8 °F 37.0 °F 41.0 °F 93% 29.59 in 6.2 mi SE 10.4 mph - N/A   Scattered Clouds
1:00 PM 44.6 °F 39.7 °F 42.8 °F 93% 29.59 in 5.6 mi SE 9.2 mph - N/A   Overcast
1:30 PM 44.6 °F 40.7 °F 42.8 °F 93% 29.59 in 2.8 mi South 6.9 mph - N/A Rain Light Rain
2:00 PM 46.4 °F 41.9 °F 44.6 °F 93% 29.56 in 3.7 mi SSE 9.2 mph - N/A Rain Light Rain
2:30 PM 46.4 °F 42.9 °F 44.6 °F 93% 29.56 in 3.1 mi SE 6.9 mph - N/A Rain Light Rain
3:00 PM 46.4 °F 42.4 °F 44.6 °F 93% 29.56 in 3.7 mi ESE 8.1 mph - N/A Fog , Rain Light Rain
3:30 PM 46.4 °F 42.4 °F 44.6 °F 93% 29.53 in 6.2 mi SE 8.1 mph - N/A Rain Light Rain
4:00 PM 46.4 °F 43.5 °F 44.6 °F 93% 29.53 in 6.2 mi SE 5.8 mph - N/A   Mostly Cloudy
4:30 PM 46.4 °F 42.4 °F 44.6 °F 93% 29.53 in 6.2 mi SE 8.1 mph - N/A   Mostly Cloudy
5:00 PM 46.4 °F 42.4 °F 44.6 °F 93% 29.53 in 6.2 mi ESE 8.1 mph - N/A   Mostly Cloudy
5:30 PM 44.6 °F 39.2 °F 44.6 °F 100% 29.53 in - SE 10.4 mph - N/A   Overcast
6:00 PM 44.6 °F 40.2 °F 44.6 °F 100% 29.53 in 1.2 mi ESE 8.1 mph - N/A   Light Drizzle
6:30 PM 44.6 °F 42.2 °F 42.8 °F 93% 29.53 in 6.2 mi ESE 4.6 mph - N/A   Overcast
7:00 PM 44.6 °F 41.4 °F 42.8 °F 93% 29.53 in 4.3 mi ESE 5.8 mph - N/A   Overcast
7:30 PM 42.8 °F 40.1 °F 41.0 °F 93% 29.53 in 1.1 mi East 4.6 mph - N/A   Overcast
8:00 PM 41.0 °F 37.1 °F 41.0 °F 100% 29.53 in 1.6 mi East 5.8 mph - N/A   Mostly Cloudy
8:30 PM 44.6 °F 38.8 °F 42.8 °F 93% 29.53 in 1.4 mi SE 11.5 mph - N/A   Mostly Cloudy
9:00 PM 44.6 °F 39.2 °F 42.8 °F 93% 29.50 in - SE 10.4 mph - N/A   Overcast
9:30 PM 44.6 °F 39.7 °F 42.8 °F 93% 29.50 in 3.7 mi SE 9.2 mph - N/A   Overcast
10:00 PM 44.6 °F 40.2 °F 42.8 °F 93% 29.50 in 3.7 mi SE 8.1 mph - N/A   Overcast
10:30 PM 44.6 °F 38.8 °F 44.6 °F 100% 29.47 in 3.1 mi SE 11.5 mph - N/A   Overcast
11:00 PM 44.6 °F 39.7 °F 44.6 °F 100% 29.47 in - SE 9.2 mph - N/A   Overcast
11:30 PM 44.6 °F 39.7 °F 44.6 °F 100% 29.47 in 3.1 mi SE 9.2 mph - N/A   Overcast